N8FIS Weather Reports


Display with metric or nautical units.
time (UTC)temp
F
wind
direction
speed
MPH
gust
MPH
rain 1hr
in
rain 24hr
in
rain mn
in
humidity
%
barometer
mb
20260503234116 55 298 2.0 9.0 0.00 0.00 0.00 64 1010.7
20260503233538 55 273 2.0 10.0 0.00 0.00 0.00 64 1010.7
20260503233100 56 350 3.0 10.0 0.00 0.00 0.00 62 1010.7
20260503232545 57 153 2.0 8.0 0.00 0.00 0.00 60 1010.7
20260503232050 57 281 3.0 8.0 0.00 0.00 0.00 61 1010.6
20260503231555 58 300 3.0 14.0 0.00 0.00 0.00 60 1010.5
20260503231041 58 327 5.0 14.0 0.00 0.00 0.00 58 1010.5
20260503230548 59 290 2.0 9.0 0.00 0.00 0.00 56 1010.4
20260503230052 59 317 3.0 9.0 0.00 0.00 0.00 48 1010.4
20260503225537 60 235 3.0 9.0 0.00 0.00 0.00 43 1010.3
20260503225042 60 177 3.0 10.0 0.00 0.00 0.00 44 1010.3
20260503224548 60 196 3.0 10.0 0.00 0.00 0.00 44 1010.3
20260503224054 60 26 3.0 12.0 0.00 0.00 0.00 42 1010.3
20260503223539 60 267 4.0 12.0 0.00 0.00 0.00 42 1010.4
20260503223046 61 261 4.0 9.0 0.00 0.00 0.00 42 1010.4
20260503222550 62 311 4.0 10.0 0.00 0.00 0.00 42 1010.4
20260503222037 62 272 3.0 10.0 0.00 0.00 0.00 42 1010.3
20260503221542 61 156 4.0 10.0 0.00 0.00 0.00 43 1010.4
20260503221043 61 300 2.0 10.0 0.00 0.00 0.00 43 1010.4
20260503220551 61 223 2.0 10.0 0.00 0.00 0.00 43 1010.3
20260503220056 61 166 3.0 10.0 0.00 0.00 0.00 42 1010.3
20260503215539 61 174 4.0 10.0 0.00 0.00 0.00 43 1010.4
20260503215045 61 279 2.0 12.0 0.00 0.00 0.00 42 1010.4
20260503214551 61 141 3.0 12.0 0.00 0.00 0.00 43 1010.5
20260503214036 61 339 1.0 10.0 0.00 0.00 0.00 43 1010.5
20260503213607 61 198 4.0 13.0 0.00 0.00 0.00 42 1010.6
20260503213053 61 182 4.0 13.0 0.00 0.00 0.00 42 1010.4
20260503212605 61 209 4.0 13.0 0.00 0.00 0.00 41 1010.6
20260503212049 61 269 3.0 14.0 0.00 0.00 0.00 42 1010.7
20260503211555 61 334 2.0 14.0 0.00 0.00 0.00 41 1010.6
20260503211100 62 180 5.0 18.0 0.00 0.00 0.00 42 1010.6
20260503210540 62 306 3.0 18.0 0.00 0.00 0.00 42 1010.7
20260503210048 62 272 3.0 10.0 0.00 0.00 0.00 42 1010.8
20260503205536 62 250 5.0 14.0 0.00 0.00 0.00 40 1010.7
20260503205043 63 298 3.0 14.0 0.00 0.00 0.00 40 1010.8
20260503204549 62 305 2.0 11.0 0.00 0.00 0.00 41 1011.0
20260503204052 62 251 3.0 17.0 0.00 0.00 0.00 40 1010.9
20260503203539 63 328 4.0 17.0 0.00 0.00 0.00 39 1010.9
20260503203049 63 169 4.0 12.0 0.00 0.00 0.00 42 1010.9
20260503202554 63 182 6.0 13.0 0.00 0.00 0.00 41 1010.7
20260503202040 64 269 4.0 12.0 0.00 0.00 0.00 41 1010.9
20260503201549 64 181 5.0 12.0 0.00 0.00 0.00 39 1010.8
20260503201055 64 275 4.0 12.0 0.00 0.00 0.00 39 1010.9
20260503200601 63 268 2.0 14.0 0.00 0.00 0.00 44 1011.0
20260503200046 63 211 3.0 14.0 0.00 0.00 0.00 40 1011.1
20260503195554 63 279 2.0 14.0 0.00 0.00 0.00 42 1011.2
20260503195040 63 340 5.0 14.0 0.00 0.00 0.00 41 1011.2
20260503194602 64 240 4.0 9.0 0.00 0.00 0.00 40 1011.3
20260503194111 64 263 2.0 9.0 0.00 0.00 0.00 40 1011.4
20260503193536 63 297 2.0 9.0 0.00 0.00 0.00 41 1011.5
20260503193040 63 227 3.0 11.0 0.00 0.00 0.00 40 1011.6
20260503192549 63 280 2.0 18.0 0.00 0.00 0.00 41 1011.6
20260503192053 63 220 4.0 18.0 0.00 0.00 0.00 41 1011.6
20260503191538 64 198 3.0 12.0 0.00 0.00 0.00 41 1011.8
20260503191045 63 269 4.0 13.0 0.00 0.00 0.00 41 1011.9
20260503190551 63 171 4.0 13.0 0.00 0.00 0.00 39 1011.9
20260503190057 63 350 3.0 12.0 0.00 0.00 0.00 40 1012.0
20260503185545 62 271 3.0 12.0 0.00 0.00 0.00 40 1012.0
20260503185051 63 251 6.0 11.0 0.00 0.00 0.00 38 1012.2
20260503184537 63 207 1.0 16.0 0.00 0.00 0.00 41 1012.1
20260503184042 63 257 2.0 16.0 0.00 0.00 0.00 40 1012.0
20260503183548 63 240 4.0 9.0 0.00 0.00 0.00 40 1012.2
20260503183050 63 290 3.0 9.0 0.00 0.00 0.00 39 1012.3
20260503182537 63 136 3.0 10.0 0.00 0.00 0.00 39 1012.3
20260503182105 63 169 3.0 13.0 0.00 0.00 0.00 42 1012.3
20260503181551 63 165 5.0 14.0 0.00 0.00 0.00 39 1012.5
20260503181057 63 34 4.0 14.0 0.00 0.00 0.00 40 1012.5
20260503180606 63 236 2.0 9.0 0.00 0.00 0.00 42 1012.6
20260503180049 63 5 3.0 12.0 0.00 0.00 0.00 41 1012.6
20260503175555 63 207 3.0 12.0 0.00 0.00 0.00 41 1012.7
20260503175104 63 322 3.0 9.0 0.00 0.00 0.00 42 1012.8
20260503174548 63 229 3.0 9.0 0.00 0.00 0.00 42 1012.9
20260503174039 62 64 3.0 10.0 0.00 0.00 0.00 39 1012.9
20260503173601 62 188 4.0 12.0 0.00 0.00 0.00 42 1012.9
20260503173045 61 276 2.0 12.0 0.00 0.00 0.00 43 1013.0
20260503172552 62 277 4.0 10.0 0.00 0.00 0.00 41 1013.1
20260503172037 62 178 3.0 11.0 0.00 0.00 0.00 40 1013.1
20260503171603 62 257 4.0 14.0 0.00 0.00 0.00 43 1013.1
20260503171049 62 107 3.0 14.0 0.00 0.00 0.00 43 1013.3
20260503170554 62 91 2.0 9.0 0.00 0.00 0.00 47 1013.3
20260503150551 56 333 1.0 7.0 0.00 0.00 0.00 54 1014.4
20260503140111 52 142 2.0 7.0 0.00 0.00 0.00 56 1014.8
20260503131107 48 271 1.0 6.0 0.00 0.00 0.00 66 1014.9
20260503130553 47 187 2.0 6.0 0.00 0.00 0.00 65 1014.9
20260503110546 36 175 0.0 3.0 0.00 0.00 0.00 79 1015.0
20260503081558 37 218 0.0 2.0 0.00 0.00 0.00 77 1015.1
20260503081043 37 236 0.0 2.0 0.00 0.00 0.00 78 1015.2
20260503080547 37 262 1.0 4.0 0.00 0.00 0.00 77 1015.2
20260503072552 37 238 0.0 2.0 0.00 0.00 0.00 77 1015.2
20260503072037 37 254 0.0 2.0 0.00 0.00 0.00 76 1015.2
20260503071545 38 240 0.0 2.0 0.00 0.00 0.00 76 1015.2
20260503071051 38 275 0.0 1.0 0.00 0.00 0.00 76 1015.3
20260503070556 38 244 0.0 2.0 0.00 0.00 0.00 75 1015.4
20260503055048 39 237 1.0 3.0 0.00 0.00 0.00 72 1015.6
20260503054536 39 227 0.0 2.0 0.00 0.00 0.00 72 1015.6
20260503054102 40 234 1.0 2.0 0.00 0.00 0.00 72 1015.7
20260503053614 40 292 0.0 1.0 0.00 0.00 0.00 72 1015.6
20260503053037 40 295 0.0 1.0 0.00 0.00 0.00 72 1015.7
20260503052544 40 295 0.0 1.0 0.00 0.00 0.00 72 1015.7
20260503052049 40 248 0.0 3.0 0.00 0.00 0.00 72 1015.7
20260503051536 40 248 0.0 3.0 0.00 0.00 0.00 72 1015.7
20260503051041 40 301 0.0 2.0 0.00 0.00 0.00 72 1015.7
20260503050610 40 301 0.0 2.0 0.00 0.00 0.00 71 1015.7
20260503050053 40 260 0.0 2.0 0.00 0.00 0.00 71 1015.8
20260503045538 41 273 0.0 1.0 0.00 0.00 0.00 71 1015.8
20260503045043 41 263 0.0 1.0 0.00 0.00 0.00 70 1015.7
20260503044544 41 263 0.0 2.0 0.00 0.00 0.00 70 1015.7
20260503044115 41 261 0.0 2.0 0.00 0.00 0.00 70 1015.7
20260503043559 41 225 1.0 2.0 0.00 0.00 0.00 70 1015.6
20260503043044 41 227 0.0 2.0 0.00 0.00 0.00 69 1015.6
20260503042551 42 274 0.0 2.0 0.00 0.00 0.00 69 1015.7
20260503042048 42 248 0.0 2.0 0.00 0.00 0.00 68 1015.7
20260503041554 42 244 0.0 1.0 0.00 0.00 0.00 68 1015.7
20260503041104 42 221 0.0 2.0 0.00 0.00 0.00 67 1015.7
20260503040613 42 221 1.0 2.0 0.00 0.00 0.00 67 1015.8
20260503040036 43 225 0.0 2.0 0.00 0.00 0.00 66 1015.7
20260503035538 43 225 0.0 3.0 0.00 0.00 0.00 66 1015.8
20260503035058 43 196 0.0 3.0 0.00 0.00 0.00 65 1015.8
20260503034545 43 232 0.0 3.0 0.00 0.00 0.00 65 1015.9
20260503034051 43 226 0.0 1.0 0.00 0.00 0.00 65 1015.8
20260503033536 44 255 0.0 2.0 0.00 0.00 0.00 65 1015.8
20260503033041 44 243 0.0 2.0 0.00 0.00 0.00 65 1015.8
20260503032547 44 208 0.0 3.0 0.00 0.00 0.00 64 1015.8
20260503032052 44 195 0.0 3.0 0.00 0.00 0.00 65 1015.8
20260503031539 44 248 1.0 3.0 0.00 0.00 0.00 65 1015.8
20260503031043 44 250 0.0 2.0 0.00 0.00 0.00 65 1015.8
20260503030549 44 250 0.0 3.0 0.00 0.00 0.00 65 1015.8
20260503030035 44 250 0.0 3.0 0.00 0.00 0.00 65 1015.9
20260503025539 44 240 0.0 2.0 0.00 0.00 0.00 65 1015.9
20260503025045 44 227 0.0 2.0 0.00 0.00 0.00 65 1016.0
20260503024551 44 216 0.0 1.0 0.00 0.00 0.00 65 1016.0
20260503024057 44 229 0.0 0.0 0.00 0.00 0.00 65 1016.1
20260503023537 44 229 0.0 1.0 0.00 0.00 0.00 65 1016.0
20260503023041 44 229 0.0 2.0 0.00 0.00 0.00 65 1016.0
20260503022612 44 229 0.0 3.0 0.00 0.00 0.00 64 1016.0
20260503022057 44 229 1.0 3.0 0.00 0.00 0.00 64 1016.1
20260503021545 44 242 0.0 1.0 0.00 0.00 0.00 64 1016.1
20260503021050 44 232 0.0 3.0 0.00 0.00 0.00 63 1016.0
20260503020535 44 232 0.0 3.0 0.00 0.00 0.00 62 1015.9
20260503020041 44 229 0.0 1.0 0.00 0.00 0.00 63 1015.9
20260503015545 44 229 0.0 1.0 0.00 0.00 0.00 62 1016.0
20260503015052 44 229 0.0 1.0 0.00 0.00 0.00 63 1015.9
20260503014538 44 229 0.0 1.0 0.00 0.00 0.00 62 1016.0
20260503014110 45 229 0.0 1.0 0.00 0.00 0.00 63 1015.9
20260503013535 45 229 0.0 1.0 0.00 0.00 0.00 62 1015.9
20260503013040 45 229 0.0 1.0 0.00 0.00 0.00 62 1015.9
20260503012601 45 229 0.0 1.0 0.00 0.00 0.00 61 1015.9
20260503012108 45 229 0.0 1.0 0.00 0.00 0.00 61 1015.9
20260503011534 45 229 0.0 0.0 0.00 0.00 0.00 61 1015.8
20260503011038 45 229 0.0 1.0 0.00 0.00 0.00 61 1015.8
20260503010607 45 229 0.0 2.0 0.00 0.00 0.00 60 1015.8
20260503010052 45 229 0.0 2.0 0.00 0.00 0.00 60 1015.8
20260503005557 45 334 0.0 1.0 0.00 0.00 0.00 60 1015.7
20260503005101 45 334 0.0 0.0 0.00 0.00 0.00 60 1015.7
20260503004611 45 334 0.0 0.0 0.00 0.00 0.00 59 1015.7
20260503004034 46 334 0.0 0.0 0.00 0.00 0.00 58 1015.8
20260503003535 46 334 0.0 0.0 0.00 0.00 0.00 58 1015.8
20260503003040 46 334 0.0 1.0 0.00 0.00 0.00 58 1015.7
20260503002546 46 334 0.0 1.0 0.00 0.00 0.00 56 1015.7
20260503002051 46 334 0.0 0.0 0.00 0.00 0.00 56 1015.7
20260503001536 46 334 0.0 1.0 0.00 0.00 0.00 55 1015.6
20260503001040 46 334 0.0 1.0 0.00 0.00 0.00 55 1015.6
20260503000545 46 334 0.0 1.0 0.00 0.00 0.00 55 1015.5
20260503000051 46 334 0.0 1.0 0.00 0.00 0.00 54 1015.5
20260502235535 47 334 0.0 1.0 0.00 0.00 0.00 54 1015.6
20260502235039 47 334 0.0 1.0 0.00 0.00 0.00 54 1015.7
20260502234609 47 334 0.0 1.0 0.00 0.00 0.00 54 1015.6